Wind_Speed
84 85 77 77 83 81 82 81 82 83 81 75 70 73 74 80 91 90 85 82 76 80 81 73 70 67 62 64 62 58 54 52 53 52 49 48 47 47 46 44 45 47 48 46
75 76 82 90 86 86 84 79 77 82 87 79 76 69 76 80 86 92 91 88 85 83 77 79 72 69 65 66 64 63 57 57 56 54 54 53 52 53 53 52 52 51 50 52
62 73 86 91 90 89 83 79 78 77 87 87 82 76 71 77 85 96 91 91 88 81 78 76 74 71 68 67 68 63 61 59 57 56 57 56 56 54 54 55 57 54 52 54
60 74 77 83 89 92 89 80 82 82 81 79 82 77 76 75 82 92 95 91 88 82 76 70 72 67 71 69 62 62 59 56 60 58 58 57 58 58 55 56 57 55 55 57
52 59 63 69 78 87 80 89 86 84 83 80 75 74 73 77 82 85 92 92 90 85 78 78 80 71 72 66 59 63 59 62 61 56 58 59 61 62 59 58 56 55 57 59
39 46 57 67 71 76 90 94 90 94 87 83 76 71 75 72 72 81 94 94 91 84 83 83 80 75 73 72 58 59 58 58 55 54 56 56 57 59 57 56 56 56 60 65
36 42 51 61 71 81 87 91 95 94 92 80 76 74 69 70 71 76 84 91 90 82 82 87 79 72 73 71 66 54 51 53 54 52 56 57 55 55 60 54 54 59 61 61
35 43 48 56 69 76 82 90 93 97 92 80 81 74 66 72 70 73 79 89 93 85 85 84 75 77 73 67 63 59 60 61 58 52 55 58 59 60 60 61 62 64 66 74
35 41 50 57 65 73 81 83 91 90 83 80 81 73 69 72 72 76 74 85 91 88 80 81 83 81 79 72 71 65 63 58 56 56 60 63 61 62 62 66 71 74 79 84
36 39 44 55 61 65 68 69 68 70 77 80 80 77 72 71 69 72 74 82 83 87 82 81 81 74 79 81 72 71 68 70 67 65 70 68 72 71 70 71 75 81 83 82
36 40 44 47 52 54 51 49 57 64 73 77 82 78 71 70 67 71 77 84 80 83 83 65 73 81 76 77 75 73 72 71 70 73 75 76 71 72 75 80 86 88 87 86
45 43 41 40 45 47 47 48 52 58 71 78 80 73 69 70 69 72 77 84 80 76 78 82 81 74 75 75 76 73 66 69 70 65 67 74 77 80 82 85 82 83 85 87
51 51 49 46 44 42 44 44 51 56 65 74 77 69 69 69 65 73 80 82 82 80 78 82 80 76 75 75 71 66 62 64 72 72 72 69 70 76 77 76 80 88 87 87
58 55 56 57 57 56 56 51 46 48 53 69 66 65 64 61 62 71 83 82 74 79 80 77 75 76 76 74 71 68 68 68 70 73 74 77 77 76 78 80 85 90 90 93
58 58 65 63 60 61 54 48 48 49 46 53 61 58 55 58 61 64 72 82 81 74 77 73 73 76 79 79 73 75 74 74 66 80 80 78 78 79 81 85 87 90 96 96
55 64 70 70 59 62 60 55 45 46 45 40 45 50 51 52 56 64 63 68 82 81 80 75 70 69 72 73 67 68 74 76 77 79 80 81 79 80 86 89 91 93 96 97
67 66 68 69 63 66 60 61 46 42 51 35 43 44 48 52 48 55 58 61 67 72 72 78 73 67 66 69 71 72 75 81 78 79 81 82 83 86 89 93 93 95 99 102
78 78 68 68 65 69 65 59 52 50 59 46 39 46 53 52 53 55 58 60 60 64 67 75 77 77 76 78 76 75 78 81 82 81 83 87 88 90 94 98 101 104 107 109
85 81 73 69 66 62 64 56 57 53 53 53 40 42 46 49 54 57 63 66 67 63 63 64 72 79 81 81 83 85 86 87 88 88 89 90 92 94 97 98 101 106 107 113
86 82 76 71 69 60 61 55 61 54 51 55 48 48 47 53 53 57 62 64 67 69 68 66 63 69 75 77 79 81 83 84 84 85 88 91 94 97 101 105 110 112 115 120
92 82 83 78 75 67 60 59 63 59 56 52 49 50 55 53 60 59 59 63 70 71 74 78 80 77 75 76 78 80 83 87 91 94 96 97 99 103 106 111 114 117 120 122
90 86 83 81 81 76 70 60 64 58 53 54 54 49 52 53 61 62 65 63 66 67 72 73 73 79 85 86 86 90 91 91 94 98 102 104 108 112 118 118 119 120 122 123
93 85 82 81 81 80 74 63 64 63 61 58 57 57 56 56 54 58 63 62 70 75 73 71 70 74 78 80 81 85 89 92 96 100 104 105 106 109 110 114 120 121 124 122
96 90 83 78 80 78 76 73 65 64 67 62 55 55 56 56 55 54 53 55 63 72 78 77 80 85 86 87 89 92 94 97 98 98 100 104 108 109 115 116 115 119 128 133
95 91 82 77 75 77 77 78 72 65 62 62 63 62 60 58 57 61 66 71 73 71 71 74 78 82 86 89 91 94 94 94 98 102 107 108 109 112 114 118 125 131 131 129
92 90 86 82 79 78 75 72 70 66 64 61 64 64 64 65 66 67 70 70 71 73 75 78 80 81 84 88 91 93 95 97 99 102 108 111 114 117 122 127 131 131 113 104
Wind_Direction
230 227 225 227 220 220 222 223 225 226 229 220 223 214 220 218 212 211 215 219 223 222 228 229 232 235 237 242 246 244 244 246 248 252 256 259 262 265 264 266 273 276 272 272
233 222 222 223 218 215 220 219 221 225 226 225 223 216 217 221 213 211 213 216 222 224 226 229 231 237 237 239 246 246 241 244 246 250 254 257 262 267 271 274 274 273 271 270
232 228 222 218 216 213 218 216 218 219 224 226 224 219 219 218 213 213 214 215 219 224 227 227 229 234 234 237 244 246 242 243 247 250 253 257 261 264 269 275 277 280 282 279
228 228 223 216 212 212 214 217 218 216 220 221 220 217 217 218 214 212 213 215 217 221 226 227 231 232 231 236 240 246 247 248 248 251 254 259 263 264 269 274 277 280 279 281
226 225 222 218 212 208 208 215 216 218 220 215 213 212 215 217 214 213 213 214 216 220 223 222 228 235 231 235 239 242 247 249 250 256 258 260 260 261 267 271 274 278 278 283
218 217 216 212 210 204 208 212 212 216 215 213 209 207 213 214 213 213 211 212 215 219 222 226 229 231 235 234 237 240 247 251 255 258 264 267 266 272 274 268 273 279 284 283
206 205 206 205 204 203 205 208 210 213 212 207 213 210 209 212 210 212 210 212 212 215 219 227 226 231 232 230 235 236 245 252 256 261 265 267 267 275 281 278 274 274 275 279
201 194 196 202 202 201 204 207 207 212 209 208 217 207 204 213 212 213 209 210 209 212 215 225 228 230 233 234 236 239 250 254 255 256 259 266 267 271 267 266 272 279 280 283
187 190 191 195 197 202 206 207 208 211 207 208 216 208 206 214 212 209 209 209 210 211 214 224 228 230 233 238 238 242 244 247 253 257 260 262 265 267 270 272 275 279 284 285
183 180 186 190 194 198 204 206 207 210 208 206 212 210 208 213 214 207 209 209 210 212 215 224 229 233 236 237 241 242 248 253 255 257 258 262 266 270 272 273 276 280 284 283
163 176 182 183 187 191 198 196 199 203 205 208 213 212 207 212 214 205 209 209 207 211 215 216 233 230 237 239 243 247 250 251 255 259 263 264 263 267 271 274 279 282 285 286
161 166 167 172 174 177 183 188 195 201 205 208 211 211 206 210 210 207 207 210 210 212 214 221 225 227 231 239 243 247 251 255 259 256 261 267 269 273 277 281 284 283 285 286
157 168 162 160 159 168 176 180 192 200 205 206 210 210 210 212 208 208 205 207 211 211 212 217 222 227 233 239 241 242 245 249 256 258 261 264 269 275 277 277 277 280 285 285
165 169 153 153 155 153 160 165 177 193 206 209 209 210 210 210 210 207 208 207 210 214 218 224 229 233 236 239 240 243 246 250 256 257 260 266 272 272 271 276 276 282 285 283
176 161 153 150 155 162 162 168 180 188 196 210 210 208 206 208 206 205 206 208 210 212 216 220 226 230 233 236 239 243 247 249 242 255 263 264 266 268 270 276 278 280 283 282
169 162 161 157 162 169 169 173 173 187 192 200 204 206 201 201 201 196 201 211 214 220 224 220 226 228 230 231 235 238 241 245 251 256 259 264 266 267 273 276 273 276 275 277
161 163 162 163 169 176 175 179 174 179 184 197 196 193 197 203 200 197 203 213 217 217 227 229 226 232 234 238 238 239 243 246 252 258 260 262 266 270 268 269 271 272 273 275
162 160 166 169 170 176 176 180 181 188 196 198 207 207 200 200 200 203 209 215 217 225 231 234 233 235 240 242 242 244 246 249 253 256 259 260 262 264 265 267 270 274 277 279
167 166 166 168 175 176 179 179 183 187 194 191 194 185 202 211 213 208 208 216 217 220 227 231 235 237 241 244 247 250 252 253 255 256 257 259 262 265 268 271 273 276 278 279
171 173 172 170 175 177 184 181 189 192 194 198 195 192 190 201 206 213 217 219 224 225 229 230 230 234 238 242 244 246 247 249 251 255 259 261 264 267 270 272 274 277 279 282
177 176 179 176 176 176 178 182 189 197 200 200 204 209 208 202 208 215 218 220 222 225 225 230 234 236 238 241 245 249 252 253 255 258 262 264 267 269 272 274 277 282 284 287
181 185 182 186 187 186 188 182 187 194 198 203 204 206 208 211 223 222 221 223 227 231 233 234 237 240 244 247 250 253 257 260 261 263 267 269 272 274 278 282 284 285 285 286
185 188 184 187 188 190 190 189 191 198 202 206 211 212 214 217 219 222 221 222 231 233 235 238 241 245 248 250 253 255 259 262 265 267 270 272 274 276 278 278 283 285 285 287
186 189 192 191 195 195 194 196 198 200 206 209 211 217 223 223 227 230 229 234 236 237 240 243 246 249 252 254 256 258 263 266 268 269 271 275 278 280 283 287 287 286 286 288
189 190 193 196 199 198 202 203 204 206 212 216 221 225 225 228 231 237 241 246 248 249 251 252 254 257 259 261 263 266 270 272 276 276 280 282 285 286 284 285 286 287 288 289
194 195 197 200 205 206 204 208 211 212 216 221 228 231 234 236 239 242 245 246 248 253 258 263 264 267 270 271 275 278 278 281 282 278 285 286 285 287 288 288 286 288 292 290
Height
10344 10363 10391 10396 10409 10425 10439 10458 10475 10497 10515 10530 10554 10567 10576 10584 10607 10622 10637 10652 10662 10673 10677 10687 10698 10707 10715 10722 10726 10731 10736 10739 10741 10742 10745 10747 10747 10748 10749 10749 10748 10748 10747 10747
10319 10353 10355 10355 10385 10404 10420 10444 10462 10476 10490 10510 10531 10551 10560 10569 10592 10609 10620 10638 10649 10656 10670 10679 10690 10698 10704 10711 10716 10722 10727 10730 10731 10735 10737 10738 10740 10740 10740 10740 10740 10739 10738 10737
10306 10312 10314 10340 10361 10386 10405 10430 10446 10464 10474 10492 10511 10531 10547 10559 10575 10595 10607 10622 10634 10649 10657 10669 10680 10686 10694 10701 10705 10711 10717 10720 10724 10726 10728 10730 10731 10732 10732 10731 10731 10731 10730 10727
10278 10280 10305 10323 10344 10368 10386 10414 10427 10441 10457 10477 10495 10521 10533 10545 10565 10582 10595 10609 10626 10640 10650 10659 10669 10678 10684 10690 10698 10704 10710 10713 10714 10718 10720 10722 10722 10722 10722 10722 10722 10720 10718 10716
10262 10274 10292 10316 10330 10350 10383 10386 10409 10425 10441 10460 10482 10501 10525 10531 10551 10575 10587 10601 10614 10630 10640 10651 10661 10667 10676 10685 10690 10697 10702 10703 10705 10710 10712 10713 10713 10714 10714 10713 10711 10708 10707 10705
10253 10263 10276 10290 10316 10340 10344 10362 10387 10400 10424 10442 10473 10492 10504 10526 10549 10555 10567 10585 10603 10619 10630 10639 10649 10661 10668 10676 10683 10687 10692 10694 10697 10699 10702 10703 10703 10703 10704 10703 10700 10697 10695 10691
10242 10253 10266 10283 10297 10315 10333 10351 10367 10385 10406 10441 10456 10478 10506 10518 10533 10545 10560 10576 10592 10608 10623 10622 10642 10651 10658 10665 10672 10677 10682 10684 10687 10690 10692 10693 10693 10692 10691 10689 10688 10686 10683 10681
10239 10246 10259 10277 10291 10310 10327 10340 10362 10374 10399 10434 10444 10473 10500 10508 10524 10534 10545 10561 10577 10597 10609 10619 10631 10639 10647 10655 10664 10669 10672 10676 10678 10679 10681 10682 10680 10677 10679 10678 10675 10673 10670 10668
10238 10246 10257 10270 10288 10303 10317 10338 10353 10374 10401 10420 10441 10471 10483 10495 10511 10524 10541 10555 10572 10589 10605 10610 10618 10627 10638 10647 10654 10658 10662 10664 10668 10669 10668 10668 10668 10667 10665 10663 10661 10659 10657 10653
10240 10251 10261 10273 10288 10305 10321 10338 10361 10379 10395 10412 10434 10455 10475 10486 10502 10524 10536 10551 10566 10582 10593 10601 10611 10625 10627 10636 10642 10647 10652 10657 10657 10657 10657 10657 10658 10656 10652 10647 10647 10646 10643 10636
10250 10258 10267 10282 10296 10312 10331 10350 10363 10374 10392 10409 10425 10446 10468 10483 10499 10517 10529 10542 10559 10573 10587 10605 10603 10615 10614 10624 10633 10637 10643 10643 10646 10644 10641 10644 10645 10642 10640 10636 10632 10628 10626 10619
10251 10263 10277 10287 10301 10316 10331 10348 10364 10376 10387 10402 10420 10443 10464 10477 10491 10509 10524 10539 10552 10566 10579 10588 10593 10602 10606 10615 10624 10628 10632 10632 10631 10632 10628 10630 10630 10627 10624 10622 10615 10609 10608 10604
10256 10265 10277 10294 10308 10321 10337 10349 10361 10375 10386 10400 10417 10437 10457 10470 10488 10501 10515 10532 10546 10558 10568 10579 10585 10592 10597 10607 10614 10620 10618 10618 10618 10621 10619 10618 10616 10614 10611 10607 10599 10592 10594 10589
10259 10272 10288 10298 10312 10326 10340 10354 10368 10380 10390 10402 10420 10436 10452 10466 10480 10495 10510 10526 10540 10552 10560 10566 10574 10582 10588 10595 10602 10606 10606 10607 10606 10604 10605 10607 10606 10600 10594 10591 10583 10579 10579 10575
10263 10283 10295 10308 10322 10336 10350 10363 10372 10383 10393 10402 10418 10435 10448 10461 10476 10491 10506 10520 10532 10543 10551 10560 10566 10573 10577 10582 10591 10592 10594 10597 10592 10590 10594 10593 10591 10587 10581 10578 10573 10568 10564 10557
10276 10286 10294 10308 10326 10337 10351 10364 10375 10385 10397 10405 10419 10433 10446 10460 10474 10487 10501 10511 10523 10535 10536 10548 10556 10559 10566 10569 10574 10581 10583 10581 10579 10580 10581 10577 10575 10575 10568 10562 10559 10554 10547 10539
10282 10294 10308 10316 10327 10342 10354 10366 10376 10386 10398 10409 10423 10436 10448 10459 10472 10485 10497 10504 10514 10522 10527 10536 10544 10550 10554 10557 10565 10568 10568 10568 10568 10567 10565 10562 10561 10557 10553 10548 10542 10536 10529 10521
10285 10294 10309 10319 10330 10341 10353 10365 10377 10388 10396 10410 10421 10434 10446 10457 10468 10480 10492 10501 10509 10515 10520 10526 10533 10538 10540 10541 10548 10553 10555 10555 10553 10553 10550 10547 10543 10539 10535 10530 10525 10518 10510 10502
10283 10294 10310 10322 10334 10347 10358 10369 10379 10388 10397 10408 10418 10430 10442 10452 10462 10472 10481 10489 10498 10506 10511 10515 10519 10524 10526 10530 10534 10537 10539 10540 10539 10536 10532 10528 10525 10522 10516 10511 10505 10499 10491 10481
10286 10295 10310 10321 10335 10346 10358 10369 10381 10388 10397 10407 10415 10425 10436 10447 10456 10465 10474 10482 10489 10497 10503 10506 10509 10513 10516 10519 10519 10519 10519 10519 10519 10517 10515 10512 10509 10505 10499 10492 10485 10479 10470 10458
10286 10294 10308 10318 10331 10344 10354 10365 10378 10387 10395 10404 10412 10422 10431 10438 10446 10455 10463 10470 10476 10482 10488 10493 10498 10501 10501 10502 10504 10505 10504 10503 10504 10503 10500 10495 10490 10485 10480 10472 10465 10456 10447 10437
10286 10296 10306 10318 10329 10343 10354 10365 10377 10385 10392 10400 10407 10415 10423 10432 10440 10449 10456 10462 10468 10472 10477 10481 10485 10487 10489 10490 10490 10489 10488 10488 10486 10484 10481 10477 10472 10467 10461 10452 10442 10431 10419 10409
10288 10298 10309 10319 10330 10341 10353 10364 10371 10381 10387 10394 10401 10410 10418 10426 10433 10441 10448 10454 10460 10464 10466 10469 10471 10472 10474 10474 10475 10475 10473 10471 10468 10465 10462 10457 10453 10446 10438 10429 10418 10407 10396 10384
10287 10298 10310 10322 10330 10342 10352 10362 10369 10377 10384 10392 10398 10406 10414 10421 10427 10432 10438 10440 10445 10450 10454 10457 10458 10460 10461 10461 10461 10460 10457 10453 10449 10446 10441 10436 10429 10421 10413 10401 10387 10374 10360 10349
10288 10300 10312 10321 10331 10344 10351 10361 10367 10376 10383 10390 10396 10402 10408 10413 10418 10424 10427 10430 10435 10438 10440 10442 10444 10444 10444 10443 10442 10440 10436 10432 10428 10424 10417 10408 10399 10389 10377 10368 10354 10341 10326 10317
10291 10302 10313 10322 10328 10340 10351 10362 10370 10378 10383 10387 10390 10397 10401 10405 10409 10413 10415 10418 10421 10424 10425 10426 10425 10426 10426 10424 10422 10418 10413 10407 10401 10395 10389 10378 10365 10354 10343 10333 10321 10308 10298 10282